Location: ???? ?????
(30.0052°N, 31.2891°E)
Time: 15:37:05
(UTC+00:00)

Hubble Space Telescope - Pass Details

Date: 26 September 2024
Orbit: 503 x 507 km, 28.5° (Epoch: 12 October)

Event Time Altitude Azimuth Distance (km) Brightness Sun altitude
Exits shadow 01:46:48 14° 146° (SE) 1,444 3.1 -26.3°
Drops below altitude 10° 01:48:30 10° 120° (ESE) 1,695 3.9 -25.9°
Sets 01:51:31 0° 96° (E) 2,580 5.4 -25.3°
